COSMO-SKYMED 4

Last updated on Mon Sep 07 2026 00:02:45 GMT+0000 (Coordinated Universal Time)

1 37216U 10060A 26249.38888882 -.00000072 00000+0 -24941-5 0 9997 2 37216 97.8919 71.8298 0001377 85.9523 274.1847 14.82157234856592
UTC large
Height (km)
Speed (km/s)
/
Latitude / Longitude
Inclination (degrees)
Orbital Period (minutes)
Azimuth
Elevation
Range (km)
Doppler Factor

Next 0 passes for location: London (51.5072 / 0.1276)

No passes found over London.
COSMO-SKYMED 4